This demonstration page uses our WeatherBlox Daily Observations layout. Learn more.

Left ArrowRight Arrow

39.01783, -85.05884

Hourly Observations for April 6, 2018

Temp ( °F °C ) Dew Point ( °F °C ) Humidity (%) Winds ( mph kmh ) Pressure ( in mb ) Visibility ( mi km ) Precip ( " mm )
12:52 am 00:52 Cloudy 42 5.6 26 -3.3 53 53 S 3 6 30.01 1016 10 16 N/A
1:52 am 01:52 Cloudy 41 5 29 -1.7 62 62 S 3 6 30.00 1016 10 16 N/A
2:52 am 02:52 Cloudy 42 5.6 30 -1.1 62 62 S 9 15 29.96 1014 10 16 N/A
3:52 am 03:52 Cloudy 44 6.7 28 -2.2 53 53 SW 8 13 29.92 1013 10 16 N/A
4:52 am 04:52 Cloudy 43 6.1 28 -2.2 56 56 SW 8 13 29.90 1013 10 16 N/A
5:52 am 05:52 Cloudy 43 6.1 28 -2.2 56 56 SSW 8 13 29.90 1012 10 16 N/A
6:52 am 06:52 Cloudy 43 6.1 28 -2.2 56 56 SSW 9 15 29.89 1012 10 16 N/A
7:52 am 07:52 Cloudy 44 6.7 29 -1.7 55 55 SW 12 19 29.91 1013 10 16 N/A
8:52 am 08:52 Mostly Cloudy 47 8.3 29 -1.7 50 50 WSW 14 22 29.91 1013 10 16 N/A
9:52 am 09:52 Mostly Cloudy 49 9.4 32 undefined 52 52 WSW 9 15 29.92 1013 10 16 N/A
10:52 am 10:52 Mostly Cloudy 53 11.7 34 1.1 48 48 W 10 17 29.92 1013 10 16 N/A
11:52 am 11:52 Mostly Cloudy 54 12.2 35 1.7 49 49 WSW 10 17 29.91 1013 10 16 N/A
12:52 pm 12:52 Mostly Cloudy 56 13.3 36 2.2 47 47 VRB 5 7 29.89 1012 10 16 N/A
1:52 pm 13:52 Cloudy 59 15 37 2.8 44 44 WSW 12 19 29.87 1011 10 16 N/A
2:52 pm 14:52 Cloudy 60 15.6 37 2.8 42 42 WSW 10 17 29.84 1011 10 16 N/A
3:52 pm 15:52 Cloudy 58 14.4 37 2.8 46 46 W 13 20 29.84 1011 10 16 N/A
4:52 pm 16:52 Cloudy 56 13.3 37 2.8 49 49 NW 16 26 29.84 1011 10 16 N/A
5:52 pm 17:52 Cloudy 54 12.2 33 0.6 45 45 NW 18 30 29.85 1011 10 16 N/A
6:52 pm 18:52 Cloudy 51 10.6 31 -0.6 46 46 NNW 16 26 29.86 1011 10 16 N/A
7:52 pm 19:52 Cloudy 43 6.1 36 2.2 76 76 NW 23 37 29.91 1013 10 16 N/A
8:37 pm 20:37 Cloudy with Light Rain 37 3 N/A N/A NW 21 33 29.97 1015 9 14 N/A
8:39 pm 20:39 Cloudy with Light Rain 37 2.8 37 2.8 100 100 NW 21 33 29.97 1015 9 14 N/A
8:52 pm 20:52 Cloudy with Light Rain 37 2.8 37 2.8 100 100 NNW 17 28 29.95 1014 10 16 N/A
9:52 pm 21:52 Cloudy with Light Snow 35 1.7 35 1.7 100 100 NNW 14 22 29.99 1016 8 13 N/A
10:11 pm 22:11 Cloudy with Light Snow 34 1.1 34 1.1 100 100 NNW 16 26 30.03 1017 9 14 N/A
10:52 pm 22:52 Cloudy with Light Snow 33 0.6 33 0.6 100 100 NNW 15 24 30.00 1016 6 10 N/A
11:08 pm 23:08 Cloudy with Light Snow 32 undefined N/A N/A NNW 13 20 30.06 1018 4 6 N/A
11:15 pm 23:15 Cloudy with Light Snow 32 undefined 32 undefined 100 100 N 14 22 30.06 1018 4 6 N/A
11:21 pm 23:21 Cloudy with Light Snow 32 undefined 32 undefined 100 100 N 16 26 30.06 1018 4 6 N/A
11:52 pm 23:52 Cloudy 32 undefined 32 undefined 100 100 N 14 22 30.00 1016 8 13 N/A

Powered by AerisWeather